Volver al catálogo

YAOGAN-34

ActivoMilitarLEO
NORAD 48340·PAYLOAD·🇨🇳 China

Lanzado Apr 30, 2021 desde Jiuquan Satellite Launch Center

Loading…

Próximos Pases (próximas 24 horas)

TLE

ActualizadoSource: Space-Track

Época: Sep 14, 2026, 14:42 UTC

1 48340U 21037A   26257.61255282  .00000036  00000-0  21052-3 0  9997
2 48340  63.4018 276.6954 0048349 353.2134   6.8232 13.45437744264039

Sigue YAOGAN-34 en tiempo real con AllMySat

Download on the App Store